TimeEST,TemperatureF,Dew PointF,Humidity,Sea Level PressureIn,VisibilityMPH,Wind Direction,Wind SpeedMPH,Gust SpeedMPH,PrecipitationIn,Events,Conditions,WindDirDegrees,DateUTC
12:15 AM,39.2,33.8,81,30.06,10.0,South,4.6,-,N/A,,Clear,190,2012-12-29 05:15:00
12:35 AM,39.2,33.8,81,30.05,10.0,South,3.5,-,N/A,,Mostly Cloudy,170,2012-12-29 05:35:00
12:55 AM,39.2,33.8,81,30.02,10.0,Calm,Calm,-,N/A,,Scattered Clouds,0,2012-12-29 05:55:00
1:15 AM,39.2,33.8,81,30.02,10.0,SSE,3.5,-,N/A,,Mostly Cloudy,160,2012-12-29 06:15:00
1:35 AM,42.8,33.8,70,30.01,10.0,SSE,5.8,-,N/A,,Overcast,150,2012-12-29 06:35:00
1:55 AM,41.0,35.6,81,30.00,10.0,Calm,Calm,-,N/A,,Overcast,0,2012-12-29 06:55:00
2:15 AM,39.2,35.6,87,30.00,10.0,Calm,Calm,-,N/A,,Overcast,0,2012-12-29 07:15:00
2:35 AM,39.2,35.6,87,30.01,10.0,Calm,Calm,-,N/A,,Overcast,0,2012-12-29 07:35:00
2:55 AM,39.2,35.6,87,30.03,10.0,Calm,Calm,-,N/A,,Overcast,0,2012-12-29 07:55:00
3:15 AM,39.2,35.6,87,30.01,10.0,Calm,Calm,-,N/A,,Mostly Cloudy,0,2012-12-29 08:15:00
3:35 AM,39.2,35.6,87,29.99,10.0,Calm,Calm,-,N/A,,Mostly Cloudy,0,2012-12-29 08:35:00
3:55 AM,39.2,35.6,87,29.98,10.0,Calm,Calm,-,N/A,,Mostly Cloudy,0,2012-12-29 08:55:00
4:15 AM,39.2,35.6,87,29.97,10.0,Calm,Calm,-,N/A,,Overcast,0,2012-12-29 09:15:00
4:35 AM,39.2,35.6,87,29.95,10.0,Calm,Calm,-,N/A,,Mostly Cloudy,0,2012-12-29 09:35:00
4:55 AM,39.2,35.6,87,29.94,10.0,Calm,Calm,-,N/A,,Mostly Cloudy,0,2012-12-29 09:55:00
5:15 AM,39.2,35.6,87,29.92,10.0,Calm,Calm,-,N/A,,Scattered Clouds,0,2012-12-29 10:15:00
5:35 AM,39.2,37.4,93,29.90,7.0,Calm,Calm,-,N/A,,Mostly Cloudy,0,2012-12-29 10:35:00
5:55 AM,39.2,37.4,93,29.88,2.0,East,4.6,-,0.01,,Overcast,100,2012-12-29 10:55:00
6:15 AM,39.2,37.4,93,29.86,3.0,ESE,6.9,-,0.03,,Overcast,110,2012-12-29 11:15:00
6:35 AM,39.2,37.4,93,29.85,4.0,SE,6.9,-,0.06,,Overcast,130,2012-12-29 11:35:00
7:15 AM,41.0,39.2,93,29.80,5.0,SE,9.2,16.1,0.01,,Overcast,130,2012-12-29 12:15:00
7:35 AM,42.8,39.2,87,29.78,4.0,East,4.6,-,0.03,,Overcast,100,2012-12-29 12:35:00
7:55 AM,42.8,39.2,87,29.76,4.0,East,3.5,-,0.03,,Overcast,100,2012-12-29 12:55:00
8:15 AM,42.8,39.2,87,29.76,5.0,Calm,Calm,-,0.01,,Overcast,0,2012-12-29 13:15:00
8:35 AM,42.8,41.0,93,29.76,4.0,Calm,Calm,-,0.01,,Overcast,0,2012-12-29 13:35:00
8:55 AM,42.8,41.0,93,29.75,5.0,Calm,Calm,-,0.01,,Overcast,0,2012-12-29 13:55:00
9:15 AM,42.8,41.0,93,29.73,1.5,Calm,Calm,-,N/A,,Overcast,0,2012-12-29 14:15:00
9:35 AM,42.8,41.0,93,29.73,0.8,Calm,Calm,-,0.03,,Overcast,0,2012-12-29 14:35:00
9:55 AM,42.8,42.8,100,29.72,1.0,Calm,Calm,-,0.04,,Overcast,0,2012-12-29 14:55:00
10:15 AM,42.8,42.8,100,29.72,0.5,NW,4.6,-,0.03,,Overcast,320,2012-12-29 15:15:00
10:35 AM,42.8,42.8,100,29.72,0.8,NW,9.2,-,0.05,,Overcast,310,2012-12-29 15:35:00
10:55 AM,42.8,42.8,100,29.70,1.0,NNW,8.1,-,0.10,,Overcast,340,2012-12-29 15:55:00
11:15 AM,42.8,42.8,100,29.70,0.8,NW,5.8,-,0.06,,Overcast,320,2012-12-29 16:15:00
11:35 AM,42.8,42.8,100,29.67,2.5,NNW,5.8,-,0.07,,Overcast,340,2012-12-29 16:35:00
11:55 AM,42.8,42.8,100,29.66,7.0,NW,10.4,-,0.08,,Overcast,320,2012-12-29 16:55:00
12:15 PM,42.8,42.8,100,29.64,10.0,NNW,5.8,-,N/A,,Overcast,340,2012-12-29 17:15:00
12:35 PM,42.8,42.8,100,29.63,10.0,NNW,6.9,-,N/A,,Overcast,330,2012-12-29 17:35:00
12:55 PM,42.8,42.8,100,29.62,10.0,NNW,6.9,-,N/A,,Overcast,330,2012-12-29 17:55:00
1:15 PM,42.8,42.8,100,29.61,10.0,NNW,5.8,-,N/A,,Overcast,330,2012-12-29 18:15:00
1:55 PM,42.8,41.0,93,29.59,10.0,NW,8.1,-,N/A,,Overcast,310,2012-12-29 18:55:00
2:15 PM,42.8,41.0,93,29.59,10.0,WNW,10.4,-,N/A,,Overcast,300,2012-12-29 19:15:00
2:35 PM,42.8,41.0,93,29.59,10.0,WNW,11.5,17.3,N/A,,Overcast,290,2012-12-29 19:35:00
2:55 PM,42.8,41.0,93,29.59,10.0,West,16.1,20.7,N/A,,Overcast,280,2012-12-29 19:55:00
3:15 PM,42.8,41.0,93,29.60,10.0,WNW,10.4,-,N/A,,Overcast,290,2012-12-29 20:15:00
3:35 PM,42.8,39.2,87,29.60,10.0,WNW,13.8,-,N/A,,Mostly Cloudy,300,2012-12-29 20:35:00
3:55 PM,42.8,39.2,87,29.61,10.0,WNW,11.5,-,N/A,,Scattered Clouds,300,2012-12-29 20:55:00
4:15 PM,44.6,39.2,81,29.61,10.0,WNW,6.9,-,N/A,,Scattered Clouds,300,2012-12-29 21:15:00
4:35 PM,44.6,39.2,81,29.62,10.0,West,10.4,-,N/A,,Clear,280,2012-12-29 21:35:00
4:55 PM,42.8,39.2,87,29.62,10.0,West,8.1,-,N/A,,Clear,280,2012-12-29 21:55:00
5:15 PM,42.8,39.2,87,29.63,10.0,WNW,6.9,-,N/A,,Clear,290,2012-12-29 22:15:00
5:35 PM,42.8,37.4,81,29.64,10.0,WNW,6.9,-,N/A,,Clear,290,2012-12-29 22:35:00
5:55 PM,41.0,37.4,87,29.65,10.0,West,5.8,-,N/A,,Clear,280,2012-12-29 22:55:00
6:15 PM,41.0,37.4,87,29.66,10.0,West,5.8,-,N/A,,Clear,270,2012-12-29 23:15:00
6:35 PM,41.0,37.4,87,29.67,10.0,West,5.8,-,N/A,,Clear,280,2012-12-29 23:35:00
6:55 PM,42.8,39.2,87,29.67,10.0,West,5.8,-,N/A,,Clear,260,2012-12-29 23:55:00
7:15 PM,42.8,37.4,81,29.68,10.0,West,8.1,-,N/A,,Clear,270,2012-12-30 00:15:00
7:35 PM,42.8,37.4,81,29.69,10.0,West,10.4,-,N/A,,Clear,280,2012-12-30 00:35:00
7:55 PM,42.8,37.4,81,29.70,10.0,West,10.4,16.1,N/A,,Clear,280,2012-12-30 00:55:00
8:15 PM,42.8,35.6,76,29.70,10.0,WNW,13.8,20.7,N/A,,Clear,300,2012-12-30 01:15:00
8:35 PM,42.8,35.6,76,29.72,10.0,WNW,12.7,16.1,N/A,,Clear,290,2012-12-30 01:35:00
8:55 PM,42.8,35.6,76,29.74,10.0,WNW,11.5,-,N/A,,Clear,290,2012-12-30 01:55:00
9:15 PM,42.8,35.6,76,29.75,10.0,WNW,8.1,-,N/A,,Mostly Cloudy,300,2012-12-30 02:15:00
9:35 PM,42.8,35.6,76,29.77,10.0,NW,8.1,-,N/A,,Overcast,310,2012-12-30 02:35:00
9:55 PM,42.8,35.6,76,29.78,10.0,NW,5.8,-,N/A,,Overcast,320,2012-12-30 02:55:00
10:15 PM,42.8,33.8,70,29.79,10.0,NW,6.9,-,N/A,,Overcast,310,2012-12-30 03:15:00
10:35 PM,42.8,33.8,70,29.81,10.0,NW,5.8,-,N/A,,Overcast,310,2012-12-30 03:35:00
10:55 PM,41.0,33.8,76,29.82,10.0,NW,4.6,-,N/A,,Mostly Cloudy,320,2012-12-30 03:55:00
11:15 PM,39.2,33.8,81,29.83,10.0,NW,5.8,-,N/A,,Scattered Clouds,310,2012-12-30 04:15:00
11:35 PM,41.0,33.8,76,29.84,10.0,NW,6.9,-,N/A,,Overcast,310,2012-12-30 04:35:00
11:55 PM,41.0,32.0,70,29.84,10.0,NW,8.1,-,N/A,,Overcast,310,2012-12-30 04:55:00